Dewpoint
58 59 58 57 58 59 60 61 61 62 62 62 62 61 60 58 58 50 43 43 46 58 51 34 35 32 34 36 38 38 32 31 28 26 25 26 25 26 25 28 32 35 44 50 56
58 59 58 58 59 58 60 60 61 62 62 62 61 60 60 59 51 45 50 60 59 59 35 32 32 32 30 32 33 31 32 31 27 23 25 25 23 24 21 26 31 37 49 54 56
58 58 58 59 59 58 59 60 61 61 61 61 60 60 59 57 44 38 54 56 58 58 34 32 31 31 30 32 32 30 31 29 23 25 24 26 24 22 21 23 25 33 48 53 55
58 58 58 59 59 58 59 59 60 61 60 60 60 59 59 51 34 39 58 58 60 47 34 32 30 31 29 30 28 28 27 25 28 28 26 26 24 23 22 24 27 30 47 53 54
57 58 58 58 58 58 58 59 60 59 59 59 59 59 51 39 39 46 59 60 52 39 33 31 29 31 29 28 28 29 23 24 28 26 25 24 24 23 23 24 25 29 44 50 51
57 57 57 57 57 58 58 59 59 59 59 59 59 58 49 30 40 45 48 50 40 36 33 32 28 29 26 25 26 25 25 24 25 24 26 24 23 23 22 24 23 28 34 44 48
57 57 57 57 57 58 58 59 58 58 58 58 58 49 37 33 37 43 44 40 38 35 33 33 32 29 30 28 25 26 23 23 23 24 24 24 22 20 18 19 19 22 27 34 42
57 56 56 56 57 57 58 58 58 58 58 58 59 46 32 44 37 39 39 37 36 34 36 34 31 34 33 27 23 23 23 22 23 23 27 25 22 21 17 15 16 18 21 29 35
56 56 56 56 56 57 58 58 58 58 57 58 50 44 29 45 35 36 36 34 34 33 34 26 34 30 29 22 19 20 18 19 19 23 23 21 19 17 20 18 16 14 16 26 29
57 55 56 56 56 57 57 57 58 57 54 48 40 37 34 34 37 35 36 34 33 35 30 32 30 28 23 20 15 18 16 17 17 19 23 19 19 18 18 19 19 14 17 19 20
57 55 55 55 56 57 56 54 48 42 41 31 30 29 31 37 37 35 36 33 33 31 26 28 23 20 19 18 17 18 16 14 18 21 21 20 19 17 20 19 18 19 19 22 23
56 55 55 56 56 57 52 40 37 37 35 35 30 34 37 36 32 34 34 29 31 25 27 27 21 22 21 18 17 16 16 15 22 22 23 19 18 17 17 18 20 19 19 20 21
56 56 55 55 56 55 50 41 37 33 28 31 30 32 36 38 32 33 32 28 25 23 24 22 21 22 19 17 15 15 14 15 18 23 22 17 16 20 19 19 20 23 21 23 25
56 55 55 55 52 50 49 47 46 43 22 25 27 31 37 36 33 37 33 29 23 21 23 23 23 21 21 16 15 13 16 20 23 17 10 16 1 15 16 17 22 24 23 24 30
56 55 55 53 46 47 46 47 48 45 22 25 26 37 36 30 32 33 35 30 22 21 22 22 21 21 21 18 19 19 21 21 23 19 16 13 8 7 15 16 22 27 29 32 32
55 55 54 51 51 47 47 50 48 33 23 24 29 32 30 30 32 33 30 31 29 23 23 24 25 23 21 23 20 23 21 20 18 15 11 9 5 8 11 13 22 29 31 34 34
52 54 52 50 47 51 51 49 32 26 25 27 24 28 24 27 30 27 26 25 22 18 19 23 22 26 24 22 23 20 16 15 12 14 13 16 12 9 14 19 26 29 32 33 34
50 53 51 51 53 53 50 38 24 22 21 30 25 26 21 25 27 27 25 21 22 16 18 16 18 23 22 20 20 21 13 20 12 17 13 18 12 12 20 21 28 30 32 33 35
49 48 48 48 52 53 43 29 24 22 22 25 24 23 21 24 25 26 23 20 20 19 12 14 20 26 24 25 21 20 15 19 17 18 21 15 14 23 25 24 29 31 32 34 36
45 44 44 48 50 49 39 28 25 29 26 25 22 22 19 22 24 24 23 21 21 23 21 16 21 27 26 26 25 20 16 14 17 11 12 14 14 10 23 24 29 30 32 34 36
43 37 43 48 49 43 33 29 26 33 29 25 21 21 21 22 22 22 22 22 21 22 22 18 25 26 25 23 19 17 16 15 12 21 19 16 11 13 21 23 28 30 31 35 36
41 33 44 47 37 37 33 32 31 33 37 31 32 23 19 22 22 22 19 21 21 24 19 25 28 25 22 26 26 23 16 15 15 15 16 23 16 23 22 23 28 29 31 35 37
37 36 44 42 32 32 36 32 32 36 36 35 33 31 27 21 23 24 23 32 28 24 21 25 28 24 22 22 26 22 20 17 15 25 21 17 11 24 21 24 28 29 32 35 36
37 32 36 38 33 33 34 34 32 38 37 36 35 35 29 23 25 23 29 36 34 28 36 32 31 23 14 15 21 21 21 20 17 22 19 18 10 22 21 25 28 30 33 36 35
35 31 34 31 33 34 34 34 33 32 38 39 37 35 29 28 25 27 28 35 35 36 30 28 28 26 20 14 19 21 21 21 18 16 13 10 14 15 23 25 27 30 33 35 34
35 30 32 32 34 34 33 33 34 35 36 37 37 37 33 32 27 29 29 32 31 35 30 30 28 25 24 22 25 22 23 21 20 17 16 13 12 13 25 27 28 30 33 35 34
38 38 34 32 33 31 30 33 33 35 35 35 37 36 36 37 38 39 36 35 34 31 29 30 30 28 22 29 26 22 25 24 21 20 17 13 14 21 24 27 28 31 32 34 34
Lifted_Index
1 1 1 2 1 1 1 2 2 2 2 3 4 4 4 5 6 6 7 8 7 6 6 6 6 8 9 8 6 5 5 5 5 6 6 6 6 6 7 6 6 5 3 1 0
1 1 1 1 1 1 1 2 2 2 2 3 3 4 5 5 5 5 7 8 7 6 7 6 6 8 9 8 6 5 5 5 5 6 6 6 7 7 7 6 6 5 3 1 0
1 1 1 1 1 1 2 2 2 2 2 3 4 5 6 5 4 4 6 7 7 7 8 8 7 8 9 8 6 5 5 5 6 6 6 7 7 7 7 7 7 5 3 1 0
1 1 1 1 1 1 2 2 2 2 3 3 4 5 7 6 5 5 6 6 6 8 9 9 7 8 8 8 7 6 5 5 6 6 7 7 7 7 7 7 7 6 3 1 1
1 1 0 1 1 1 2 2 2 3 3 4 4 6 7 7 6 6 6 6 7 8 9 9 8 8 8 8 7 7 6 6 6 6 7 7 7 7 7 8 8 7 4 2 1
1 0 1 1 1 1 1 1 1 2 3 4 5 6 7 8 8 8 7 7 8 8 9 8 8 8 8 8 8 7 6 6 6 6 7 7 7 7 8 8 8 8 6 4 3
1 1 1 1 1 1 1 1 1 2 3 3 4 6 8 8 9 9 8 8 9 9 8 8 7 7 8 8 7 7 6 6 6 6 6 7 7 7 8 8 8 8 7 6 5
0 1 1 1 1 1 1 1 1 1 2 3 4 6 8 8 9 9 9 9 9 9 8 7 7 8 8 8 7 7 6 6 6 6 6 6 6 7 7 7 8 8 8 7 7
1 1 1 1 1 1 1 1 0 1 1 3 4 6 7 8 9 9 8 8 8 8 7 7 7 8 8 7 7 6 5 6 6 6 6 6 6 7 7 7 7 7 8 8 8
1 1 1 1 1 0 0 1 1 1 2 4 5 7 7 8 8 8 7 7 7 7 6 6 7 7 8 7 6 5 5 5 6 6 6 6 6 7 7 7 7 7 7 8 8
1 1 1 1 1 0 1 1 2 3 4 5 6 7 7 7 7 7 6 6 6 5 5 6 7 7 8 7 6 6 6 6 6 6 6 6 6 6 7 7 7 7 8 8 8
1 1 1 1 1 1 1 2 3 4 5 6 7 7 6 6 6 6 6 5 5 5 5 6 6 7 7 7 7 6 6 6 6 6 6 5 5 6 7 7 7 7 8 8 8
1 1 2 2 2 2 2 2 3 3 4 5 6 6 6 5 6 5 5 5 5 4 5 5 6 7 7 7 6 6 6 6 6 6 5 5 4 5 6 7 7 7 8 8 8
1 1 2 2 3 2 2 1 2 2 3 4 5 5 5 5 5 5 5 5 4 4 4 5 6 6 6 6 6 6 6 6 6 5 5 4 4 4 5 6 6 7 7 7 8
1 2 2 3 3 3 2 1 1 1 1 3 4 5 5 5 5 5 5 5 4 4 4 5 6 6 6 6 6 6 6 6 6 5 4 4 3 4 5 5 6 6 7 7 8
1 2 3 3 3 2 1 1 0 0 1 3 4 4 4 5 5 5 5 5 4 4 4 5 6 6 6 6 6 6 6 5 5 4 3 4 4 4 5 5 5 6 6 7 8
2 2 3 3 3 2 1 1 1 1 2 4 4 4 4 5 5 5 5 5 4 4 4 4 5 5 6 6 6 6 5 4 3 2 3 4 4 4 5 6 6 6 7 8 8
3 3 3 3 3 1 1 2 3 3 4 4 4 4 4 4 4 5 5 4 4 4 3 3 4 5 6 6 5 5 5 3 2 2 3 4 4 5 6 7 7 7 7 8 9
4 4 4 3 2 1 2 3 4 4 4 4 4 4 3 4 4 4 4 4 4 4 3 3 3 5 6 6 6 5 5 4 3 2 2 3 4 5 5 6 6 6 7 8 9
4 4 4 3 2 2 3 4 4 4 3 4 4 4 3 3 3 3 4 4 4 4 4 3 4 5 6 6 5 5 5 4 4 2 1 2 3 4 5 5 5 5 6 8 8
5 4 4 4 3 3 4 5 4 3 2 3 3 3 3 3 3 2 3 3 4 4 4 4 4 4 5 5 5 5 4 4 3 2 1 1 3 4 4 5 5 5 6 8 8
5 5 5 5 3 3 4 4 3 2 2 2 3 3 3 3 3 2 2 3 3 3 4 4 4 3 4 4 5 4 4 4 3 3 2 2 3 5 5 5 5 6 6 7 8
5 6 6 5 3 3 3 3 2 2 1 2 2 3 3 3 3 3 3 3 3 3 3 3 3 2 3 4 4 4 4 4 3 3 3 2 3 5 5 5 5 5 6 7 7
6 6 6 5 3 3 3 3 3 2 1 1 2 2 3 3 3 3 3 3 3 3 3 3 2 2 2 3 3 3 3 3 3 3 2 2 3 4 5 5 5 5 6 7 7
7 7 6 4 3 3 3 3 3 2 2 1 1 2 2 3 3 3 3 3 3 3 3 2 2 2 2 2 3 3 2 3 2 2 2 2 3 4 5 5 6 6 6 6 7
8 8 7 5 5 4 3 3 2 2 2 2 1 1 2 2 2 2 2 3 3 3 3 3 3 2 3 3 3 3 3 3 3 3 3 3 4 5 6 6 6 6 6 6 6
8 8 7 6 5 4 3 3 2 2 2 2 2 1 1 1 2 2 2 2 3 3 3 3 3 3 3 3 3 3 3 3 3 3 4 3 4 5 6 6 7 7 6 6 6